Regional Weather Roundup
Issued by NWS Midland/Odessa, TX

Skip options and go directly to product.
Home | Oldest Version | Previous Version | Current Version | All | Text Only | Save Text | Print | Product List | Glossary Off

Skip product version selection by date and time.   

342
ASUS44 KMAF 270410
RWRMAF
MIDLAND AREA WEATHER ROUNDUP
NATIONAL WEATHER SERVICE MIDLAND TX
1100 PM CDT THU MAY 26 2016

...IN SOUTHWEST TEXAS AND SOUTHEAST NEW MEXICO...

CITY           SKY/WX    TMP DP  RH WIND       PRES   REMARKS
ALPINE         MOCLDY    79   2   5 NW12G21   29.91R
ANDREWS        FAIR      79  34  19 W5        29.78R
ARTESIA        CLEAR     68  16  13 W12       29.80R
BIG SPRING     CLOUDY    70  56  61 S8        29.77R
CARLSBAD       CLEAR     77  12   8 W21       29.74R
DRYDEN           N/A     74  59  59 SE9       29.71R
FORT STOCKTON  CLOUDY    76  51  41 E3        29.74R
GUAD PASS      NOT AVBL
HOBBS          PTCLDY    72  18  13 W8        29.79R
MARFA          CLEAR     71   6   8 NW13      29.91R
MIDLAND AIRPK  CLOUDY    80  56  42 S12       29.77R
MIDLAND INTL   CLOUDY    80  56  43 SE14      29.76R
ODESSA         MOCLDY    80  55  42 S15       29.77R
PECOS          PTCLDY    80  21  11 W9        29.73R
PRESIDIO       NOT AVBL
SEMINOLE       PTCLDY    74  26  16 SE6       29.77R
SNYDER           N/A     70  61  74 S6        29.75R
WINK           CLEAR     79  24  13 NW9       29.72R
$$
...OTHER STATIONS IN TEXAS...

CITY           SKY/WX    TMP DP  RH WIND       PRES   REMARKS
ABILENE        CLOUDY    67  63  87 SE12      29.75R
AMARILLO       CLEAR     68  23  18 W10       29.73R
AUSTIN         TSTM      68  68 100 E33G43    29.78S VSB 1/4
BROWNSVILLE    CLOUDY    81  77  88 S13       29.87R
CORPUS CHRISTI CLOUDY    81  77  88 S14G24    29.81F
DALLAS FTW     TSTM      73  67  81 S17G26    29.80S
DEL RIO        CLOUDY    78  69  73 E9        29.68R
EL PASO        CLEAR     75  12   9 NW20G28   29.86R
HOUSTON INT    TSTM      68  68 100 E13       29.94F
LUBBOCK        PTCLDY    68  32  26 W9        29.73R
SAN ANGELO     CLOUDY    68  63  84 E10       29.73R
SAN ANTONIO    CLOUDY    80  74  81 SE24G36   29.78S
WACO           CLOUDY    71  67  87 SE16      29.80F
WICHITA FALLS  NOT AVBL
$$
...OTHER LOCATIONS IN NEW MEXICO...

CITY           SKY/WX    TMP DP  RH WIND       PRES   REMARKS
ALAMAGORDO     CLEAR     61  14  16 NE5       29.89R
ALBUQUERQUE    PTCLDY    61  20  20 N8        29.93R
CANNON AFB     CLEAR     67  13  12 W12       29.79R
CLOVIS         CLEAR     63  18  17 W8        29.79R
HOLLOMAN AFB   CLEAR     67  13  12 W8        29.87R
ROSWELL        CLEAR     69  14  12 W12       29.81R
RUIDOSO          N/A     54   9  16 SW12      30.01R
SANTA FE       CLEAR     53  20  27 NW13      29.94R
TRUTH OR CONSE CLEAR     64  13  13 W7        29.91R
TUCUMCARI      CLEAR     62  18  18 W8        29.76R
$$

USA.gov is the U.S. government's official web portal to all federal, state and local government web resources and services.